Dauntless Aviation
Airports Asia Iran
OIAA
ABD

Abadan Airport

Abadan, IRAN

Airport Info
Suggest Updated Information for this Airport

Location

Latitude / Longitude: 30°22'4"N / 48°13'48"E
  30°22.074'N / 48°13.806'E
  30.3679 / 48.2301

Nearby radio navigation aids

ABD ABADAN VOR/DME. 145.2° 1.5nm from ABD to field.

Runway Information

Runway 14L/32R

Dimensions: 7434 x 115 ft.
Surface: ASP
 
Runway 14L
Runway 32R
Latitude: 30.371333 30.354683
Longitude: 48.228969 48.242617
Elevation: 18 ft. 18 ft.
Runway true heading: 143.7 323.7
 

Runway 14R/32L

Dimensions: 10184 x 148 ft.
Surface: ASP
 
Runway 14R
Runway 32L
Latitude: 30.37875 30.35595
Longitude: 48.2212 48.239892
Elevation: 18 ft. 18 ft.
Runway true heading: 143.7 323.7
 

Instrument Procedures

  Aerodrome Chart

STARs (Standard Terminal Arrivals)

  STAR Rwy 14R/32L GABSU2N/2P BOPIS1N/2P DEMPO1N/2P
  STAR Rwy 14R/32L BOPIS1Q DEMPO1Q IBSAL1N/1Q
  STAR Rwy 14R/32L GABSU2T BOPIS2T DEMPO2T

IAPs (Instrument Approach Procedures)

  Aerodrome Textual Information
  ILS 1 Rwy 32L
  ILS 2 Rwy 32L
  VOR/DME 1 Rwy 32L
  VOR/DME 2 Rwy 32L
  VOR/DME 3 Rwy 14R
  VOR/DME 4 Rwy 14R
  VOR Rwy 32L
  VOR Rwy 14R
  NDB/DME Rwy 14R

Departure Procedures

  SID Rwy 14R/32L GABSU 2G/2H BOPIS 2G/2H
  SID Rwy 14R/32L DEMPO 2G/2H IBSAL 2G/2H
  SID Rwy 14L/32L GABSU 2K/2L BOPIS 1K/1L
  SID Rwy 14R/32L DEMPO 2K/2L IBSAL 1K/1L
Satellite photo at:
Airport distance calculator
From:
Weather Reports

METAR

OIAA

OIAA 090000Z 25002KT CAVOK 25/12 Q1007
ORMM
31.5nm W
ORMM 090000Z 24004KT CAVOK 25/10 Q1007 NOSIG

TAF

OIAA
TAF OIAA 082300Z 0900/1006 30008KT 8000 NSC TEMPO 0909/0916 30022KT PROB30 0910/0916 4000 DU/SA
ORMM
31.5nm W
TAF ORMM 081000Z 0812/0912 26015G25KT 8000 NSC TEMPO 0812/0816 5000 BLDU
Safelog

 

Dauntless Aviation

© 2007-2021 Dauntless Aviation, all rights reserved
Information provided via PilotNav comes from a variety of official and unofficial data sources. As errors are possible, do not use PilotNav for primary flight planning purposes. Verify any information that you receive via PilotNav with current and canonical charts and other official documents. The material in this database is subject to database copyrights held by Dauntless Aviation and may not be copied without the express permission of Dauntless Aviation - licenses for use of part of all of this data are available for purchase; enquire via the Dauntless Aviation helpdesk. A number of mechanisms and markers exist in the database to protect against and identify infringement / copyright. Automated queries against this website are strictly prohibited, and all activity is logged and analyzed.